Temp
23 23 23 23 23 23 23 23 23 23 23 23 24 24 24 23 23 23 23 23 23 23 23 23 23 24 24 24 24 24 24 25 26 27 25 25 24 24 24 25 25 25 25
23 23 22 23 23 23 23 23 24 24 23 23 23 23 24 24 23 23 23 23 23 23 23 23 23 24 23 23 24 23 24 23 24 25 24 25 24 24 23 24 24 25 25
20 20 21 21 21 21 21 23 23 23 24 24 24 24 22 23 23 23 23 23 23 23 23 23 23 23 23 24 23 24 24 23 23 24 25 24 24 24 24 24 24 24 25
18 19 19 21 22 23 22 21 23 23 24 24 24 24 23 23 23 22 23 23 23 23 23 23 23 23 23 23 23 23 23 23 24 24 25 25 25 24 23 25 25 25 25
17 18 18 18 19 20 21 22 21 22 23 23 23 23 22 23 22 22 22 23 23 23 23 23 23 23 24 24 23 24 23 24 25 25 26 26 26 26 25 24 24 25 26
17 17 18 17 17 18 18 19 19 20 22 22 21 21 21 21 22 23 22 22 23 23 23 23 23 24 24 24 24 24 24 23 23 25 25 25 24 24 25 24 24 25 26
16 17 17 18 17 18 18 18 18 18 19 20 20 20 20 20 20 22 22 22 23 22 22 22 23 24 23 23 23 24 24 24 24 23 23 24 24 24 23 23 24 23 24
15 15 16 17 16 16 16 16 16 17 17 18 18 18 18 18 19 19 20 21 21 21 21 21 21 21 21 23 22 22 23 23 23 23 22 23 23 22 22 22 22 21 22
13 13 14 15 15 16 16 16 16 16 16 17 17 17 18 18 18 19 19 19 19 19 19 20 20 20 20 20 21 22 22 22 23 22 22 22 22 22 22 21 23 24 25
13 13 14 15 16 16 16 16 16 16 16 16 16 16 17 17 17 18 18 18 18 18 18 18 18 19 19 19 19 18 20 22 20 21 21 21 21 21 22 21 21 23 24
13 14 14 15 15 15 16 16 15 15 16 16 15 15 15 15 16 17 17 18 17 18 19 18 18 19 19 19 19 19 18 19 20 19 20 21 22 22 22 22 21 21 22
13 13 13 13 14 15 15 15 15 15 16 15 15 15 14 14 16 16 16 17 18 17 17 18 17 18 18 18 18 19 19 20 20 20 21 22 22 21 22 21 20 20 20
12 11 12 12 13 13 14 13 13 13 14 14 15 15 14 14 13 15 15 16 16 16 16 17 17 18 18 18 18 18 18 19 19 19 20 19 19 20 19 20 19 19 20
10 10 10 10 10 10 10 10 11 12 13 13 13 13 13 13 12 11 12 13 15 16 16 17 17 17 17 17 17 17 17 17 17 18 17 18 18 19 19 19 19 18 19
9 9 9 9 9 9 9 9 9 8 9 10 11 11 12 12 9 10 11 12 13 13 15 15 15 15 16 17 17 17 16 15 16 16 16 17 17 17 18 18 18 18 19
9 9 9 9 9 9 10 9 9 9 9 9 9 9 9 8 9 10 11 12 13 13 13 14 15 15 15 15 15 17 17 16 15 15 15 14 15 15 16 16 17 17 18
10 9 9 9 9 9 9 10 11 8 8 8 8 8 8 8 9 9 10 11 11 12 13 14 14 14 14 14 15 15 15 14 12 14 14 14 14 15 14 15 16 16 17
9 8 9 9 9 9 9 8 9 9 10 9 7 7 8 8 9 9 10 10 12 12 12 10 11 13 12 11 11 11 10 10 11 12 12 12 12 13 14 15 15 15 15
9 9 9 8 8 8 8 8 8 8 8 8 8 7 6 6 6 6 7 8 9 10 10 11 11 11 12 11 10 9 9 10 9 10 12 12 10 9 9 11 12 12 12
8 8 8 8 8 8 8 8 8 8 8 7 7 6 6 6 7 7 6 6 7 7 8 7 6 6 6 8 8 9 9 9 9 10 10 10 10 9 8 8 9 10 10
9 8 8 8 8 8 8 8 8 8 8 7 7 5 3 4 6 5 5 5 5 5 5 5 5 5 5 4 5 5 6 7 7 8 8 8 8 7 7 7 7 7 8
9 9 8 9 8 8 8 7 7 7 7 7 7 6 4 6 6 5 5 4 3 2 2 2 3 3 4 4 3 4 4 4 4 5 5 6 6 6 5 5 5 5 6
9 9 8 8 8 7 7 7 7 7 7 7 7 6 6 6 5 5 4 3 3 1 1 1 0 1 2 2 2 3 3 4 3 3 2 2 3 3 3 4 4 4 4
9 9 9 9 8 8 8 8 7 6 6 7 7 6 6 5 5 4 3 3 1 1 0 -0 -0 -0 -0 0 1 1 2 2 2 2 2 2 1 1 1 2 2 3 3
8 8 9 9 8 8 8 8 8 8 7 7 7 6 6 5 5 4 3 2 1 0 -1 -1 -1 -1 -1 -1 -0 -0 0 0 0 0 0 -0 -0 -0 -0 0 1 1 2
8 7 8 9 8 8 8 8 8 8 8 7 7 6 6 5 4 3 2 2 -0 -1 -1 -1 -1 -1 -2 -1 -1 -1 -1 -1 -1 -1 -1 -1 -0 -0 -0 -0 1 1 2
Height
854 859 861 863 864 866 868 869 870 872 875 876 879 881 882 883 884 885 887 889 889 890 891 891 891 891 892 891 891 890 890 889 887 884 883 882 879 876 875 873 871 868 866
851 856 858 861 864 864 865 867 868 870 873 875 876 877 879 881 883 885 886 887 887 888 889 889 890 891 890 890 890 889 889 888 887 885 882 880 879 876 874 871 869 868 865
847 853 856 859 861 862 863 865 867 869 871 872 873 875 877 878 881 882 883 885 887 887 887 888 888 888 889 888 888 888 887 887 886 884 881 880 877 876 873 871 869 866 865
847 850 854 856 858 859 860 863 865 867 869 870 871 873 875 876 878 880 882 883 885 885 886 885 886 887 887 887 887 886 886 886 884 883 880 878 876 874 872 870 868 867 864
848 849 853 855 856 857 858 859 862 864 865 867 869 871 873 874 875 877 879 881 882 883 884 884 884 885 884 884 884 884 883 882 881 880 878 876 874 873 871 870 867 865 862
846 850 852 854 857 857 858 858 860 862 862 864 866 870 872 873 872 873 875 877 879 880 880 881 881 879 880 880 879 879 879 878 878 877 875 874 873 872 869 868 865 863 860
847 850 853 851 859 857 860 858 859 861 863 863 864 867 869 870 870 870 872 873 875 876 876 877 877 877 876 876 875 875 875 874 873 873 872 871 869 868 867 864 862 859 857
847 850 854 853 859 858 860 860 860 862 863 863 864 866 868 869 869 869 868 869 871 872 873 873 873 873 872 871 872 871 871 870 870 869 867 866 865 864 862 861 858 856 852
851 855 857 858 860 859 858 861 861 863 864 864 866 868 869 869 869 868 868 867 868 869 870 869 869 870 867 867 867 867 867 866 866 864 863 862 860 859 858 857 855 851 847
856 858 859 859 858 860 862 863 865 863 865 866 866 869 872 870 868 869 868 868 867 868 867 867 867 866 865 864 865 864 863 862 861 860 859 858 857 855 854 853 852 849 845
856 858 861 860 860 862 863 864 865 865 865 865 869 871 873 871 869 869 869 868 869 870 868 868 867 866 866 864 862 862 861 859 857 856 855 854 852 851 850 849 848 847 844
861 862 864 864 863 864 867 867 866 867 867 868 871 873 872 873 871 870 870 869 868 867 869 868 867 865 864 863 861 860 858 856 856 853 852 851 850 849 847 845 843 842 841
864 865 867 868 867 868 866 868 870 870 870 871 873 874 874 874 874 871 871 870 870 870 866 866 865 865 861 861 859 858 856 856 855 852 850 849 848 847 845 843 840 837 834
867 868 869 869 869 870 871 871 872 873 872 872 874 874 874 874 871 870 869 868 868 867 866 865 865 862 860 860 857 856 855 854 854 852 850 848 846 843 842 840 838 834 830
865 867 870 870 871 871 872 873 874 873 873 874 875 875 875 875 874 872 869 868 866 865 864 864 864 860 856 857 857 856 855 854 853 850 848 846 844 841 838 837 835 832 829
866 869 870 870 872 872 873 874 874 874 874 875 875 875 876 875 874 871 868 866 864 863 861 862 862 861 859 858 855 854 854 852 849 848 846 844 842 840 837 834 833 830 826
869 870 872 874 875 875 875 875 876 878 877 877 876 876 874 874 871 869 867 864 863 864 863 862 862 859 858 856 854 853 851 850 848 847 844 843 839 837 836 832 830 827 824
869 870 872 873 874 875 876 877 878 878 879 879 877 876 874 872 870 868 865 863 864 864 863 863 861 858 858 857 854 852 850 847 846 845 844 842 839 836 833 829 828 825 822
869 870 872 873 875 876 877 878 879 879 879 879 879 878 875 872 869 868 867 867 866 867 864 863 860 858 855 854 853 850 848 847 844 842 840 838 837 835 831 829 826 823 820
870 871 872 875 876 877 878 878 878 878 879 880 879 878 876 873 871 870 870 869 868 866 864 862 860 857 854 853 851 849 846 844 842 840 838 835 833 831 829 826 824 821 817
868 869 871 874 875 876 877 878 878 878 878 877 878 877 875 874 874 872 871 869 867 866 863 860 858 855 852 850 848 846 844 841 839 836 834 832 829 827 825 823 820 817 814
866 868 871 872 874 876 877 878 878 879 878 878 877 876 873 873 872 870 868 867 865 863 861 858 855 853 850 847 845 841 839 836 834 831 829 827 825 822 819 816 814 811 808
865 867 868 870 871 873 874 875 876 875 874 874 875 874 872 870 868 866 864 862 860 858 856 853 850 847 845 843 840 837 834 831 828 825 823 820 817 815 812 809 806 802 799
863 865 865 866 868 869 870 871 871 871 871 870 870 870 868 866 864 862 860 857 855 853 851 849 846 843 839 835 833 831 828 825 822 819 816 812 808 806 803 800 798 795 791
857 862 863 863 864 865 865 867 867 866 865 865 864 863 861 859 857 855 853 851 849 847 845 842 839 836 834 831 828 824 820 816 813 811 807 804 800 797 795 792 789 785 782
852 857 859 860 860 861 861 862 861 861 861 861 859 858 857 855 854 852 850 848 846 843 840 837 834 830 827 824 820 816 812 809 805 802 799 795 791 788 786 782 779 776 772
Wind_Speed
22 18 16 12 9 8 7 8 14 12 12 12 12 11 12 12 12 12 11 9 8 7 7 6 6 6 5 4 3 3 3 4 8 8 8 10 10 11 10 12 11 11 11
18 18 14 13 11 9 7 4 12 13 11 12 12 12 12 12 13 12 11 10 10 8 7 7 8 7 7 6 5 4 4 4 5 7 8 10 9 11 12 12 13 10 9
16 13 12 9 8 7 9 9 8 8 8 8 12 12 10 10 13 12 12 10 10 11 9 9 8 7 6 6 5 6 5 5 6 8 9 9 10 9 13 12 12 12 10
16 15 11 8 6 7 8 9 12 12 11 9 8 8 6 8 10 10 11 10 11 11 9 8 8 10 9 7 6 7 8 9 9 8 9 10 9 9 8 11 14 13 15
15 15 11 7 4 2 6 8 9 12 12 12 10 8 7 7 6 9 10 10 10 10 10 10 8 9 10 10 9 10 9 10 11 11 12 10 12 12 11 10 11 15 17
13 12 11 9 7 5 4 5 7 8 11 10 9 7 7 6 10 10 10 8 10 12 12 11 11 10 10 12 12 12 12 11 11 11 12 11 13 12 12 13 14 14 15
16 14 10 11 6 8 6 9 9 7 7 7 6 6 7 8 8 11 11 11 11 10 11 11 11 11 10 8 10 12 14 14 15 15 15 15 14 14 14 15 15 15 16
16 15 13 10 8 11 9 9 8 6 6 7 6 5 5 3 1 1 3 6 7 8 10 11 12 11 10 15 13 13 14 14 15 15 15 17 16 15 14 15 15 16 17
19 15 13 14 12 12 13 10 10 8 8 9 8 6 7 6 4 3 2 2 1 2 4 8 10 8 13 15 13 13 14 15 14 16 18 19 20 19 16 16 16 17 20
15 14 11 12 13 12 11 10 10 12 12 11 13 11 12 13 11 9 8 7 7 6 6 3 2 3 6 9 9 9 11 11 10 12 14 15 16 18 20 20 19 20 21
13 12 12 14 14 12 11 11 10 11 12 14 12 10 9 8 8 7 7 6 6 6 4 6 6 8 9 9 10 10 11 15 15 14 14 15 14 13 13 13 14 16 20
13 12 11 11 14 14 12 12 13 13 15 14 13 11 10 9 9 9 7 5 4 5 6 6 7 9 10 10 10 12 13 14 11 11 13 13 14 14 13 13 14 16 19
15 14 13 12 13 11 12 11 9 9 9 9 8 8 8 8 9 10 10 11 10 5 6 8 11 12 9 11 12 12 10 9 9 10 11 11 12 13 14 15 13 14 17
14 13 11 11 11 10 10 9 9 8 8 8 7 7 6 8 12 13 14 13 13 13 13 12 10 9 10 11 11 10 9 9 9 9 9 12 13 13 14 14 16 17 15
12 10 9 9 9 11 11 10 10 14 10 8 7 7 7 8 12 13 14 15 15 16 16 10 12 11 10 11 12 11 8 8 7 8 10 10 11 12 12 13 15 16 17
10 8 8 8 7 8 9 11 12 11 10 11 10 8 6 6 7 9 11 13 14 16 12 12 12 12 13 13 13 14 12 10 9 10 9 10 11 12 13 14 14 15 16
11 10 9 8 7 8 8 8 8 8 10 10 9 6 6 8 10 11 11 12 12 11 9 10 12 13 14 15 15 14 12 11 11 11 11 12 12 13 14 15 14 14 16
10 12 9 9 7 8 8 8 7 7 6 6 9 10 11 12 12 13 14 12 10 10 10 11 12 12 12 12 12 12 12 13 12 12 14 14 13 14 16 15 15 15 17
10 9 8 8 8 9 8 8 7 7 6 6 7 9 14 16 16 15 14 11 11 11 11 12 13 15 16 15 15 13 13 13 13 13 14 13 13 14 16 17 19 18 18
11 12 11 10 9 7 6 6 6 6 6 6 7 10 13 14 14 13 12 11 11 12 13 13 14 15 14 15 15 16 16 15 15 15 16 16 15 15 17 18 19 21 21
13 12 11 10 8 7 6 5 5 5 5 5 5 6 13 8 10 11 12 12 12 13 15 16 17 18 18 20 21 18 18 19 18 19 19 19 19 18 18 20 21 22 23
14 14 12 11 10 8 6 5 4 3 3 4 4 6 11 8 10 11 11 12 12 13 15 16 18 19 20 21 22 20 18 18 20 21 24 24 25 25 25 25 24 24 24
11 12 12 10 9 9 7 6 4 2 1 2 4 5 7 9 10 11 12 13 14 15 15 15 18 18 19 20 21 22 23 25 24 22 26 26 26 26 26 27 28 28 26
12 12 11 10 10 9 8 7 6 5 3 3 4 5 7 8 10 11 11 13 14 14 15 16 18 20 23 24 25 24 23 23 26 27 27 28 27 26 24 26 27 28 28
13 13 12 11 9 9 8 9 8 6 6 6 7 7 9 10 13 14 14 15 15 16 16 19 22 21 22 23 24 25 26 28 29 30 31 30 29 27 27 27 28 29 29
18 14 12 11 11 10 9 10 9 8 8 9 9 9 10 11 12 13 14 14 15 15 18 20 21 22 22 23 24 23 25 26 25 25 25 26 27 27 25 27 28 29 30
Wind_Direction
209 216 220 221 210 212 219 242 215 211 217 221 224 224 228 224 226 224 220 226 232 236 239 235 238 248 247 245 250 266 272 273 298 316 318 330 344 339 345 346 341 349 350
202 212 213 210 217 206 217 235 208 212 221 227 236 233 235 239 231 233 227 227 228 231 235 241 247 247 251 251 258 255 259 266 290 302 319 329 329 341 341 350 353 353 6
169 172 183 189 197 212 220 219 210 205 218 234 232 235 237 237 238 234 231 227 241 246 241 245 254 244 253 243 241 250 258 268 274 283 305 312 318 328 339 342 349 353 359
137 142 140 155 175 206 214 223 221 218 224 225 221 219 231 224 230 239 243 238 242 252 253 250 253 255 264 272 270 278 291 293 300 297 298 309 309 323 335 336 341 340 334
121 115 109 99 103 173 214 211 217 213 213 214 218 222 224 221 230 238 242 241 245 253 259 259 255 257 267 270 272 279 284 282 286 291 296 296 305 318 326 326 322 325 325
121 109 106 95 88 92 122 157 173 188 195 202 207 213 214 208 230 235 243 244 256 260 253 255 263 266 274 279 275 277 272 270 272 285 291 296 298 300 307 309 312 312 311
125 126 118 103 104 106 131 133 132 141 159 165 171 175 193 222 240 238 238 245 249 260 268 274 275 272 273 272 274 271 266 265 265 269 271 278 286 290 295 299 300 297 293
115 111 124 126 135 122 111 102 101 102 109 112 118 133 143 137 132 7 268 236 247 257 264 269 270 272 276 270 274 275 272 270 271 271 265 274 278 284 285 288 288 290 293
107 107 110 122 123 119 102 104 115 105 107 105 100 107 108 89 59 34 48 77 73 296 284 270 271 271 260 271 272 270 275 278 282 286 277 274 280 281 282 285 285 292 294
100 105 105 109 104 103 111 110 111 113 111 105 100 93 104 91 73 62 68 65 60 48 53 18 8 328 309 309 306 301 286 283 294 292 288 288 288 283 284 277 278 282 290
108 105 103 106 106 101 102 108 108 107 109 105 104 100 91 80 59 58 56 55 27 10 33 7 2 344 333 329 324 314 300 297 303 299 294 293 291 290 289 284 279 276 282
117 111 104 103 107 112 109 104 104 105 103 101 105 91 78 70 61 57 36 8 352 343 336 341 339 343 345 339 339 322 312 309 305 303 301 302 305 305 302 297 293 287 277
129 119 113 108 101 105 103 97 88 82 85 84 84 84 79 61 37 52 50 42 32 7 338 324 321 320 329 336 337 337 342 322 311 309 310 311 312 311 313 309 308 302 297
122 118 115 110 104 94 84 80 78 70 73 70 62 58 46 36 23 11 7 8 5 2 359 353 341 335 339 328 340 338 335 329 321 313 308 309 310 314 313 311 310 316 310
113 108 102 97 96 91 83 81 80 72 74 74 60 47 35 24 7 1 355 350 348 347 342 337 337 343 344 334 328 321 317 298 314 322 325 323 323 325 326 327 320 316 308
122 117 113 103 96 98 102 88 87 91 81 78 71 75 52 26 353 343 330 323 328 328 334 329 326 324 321 317 313 307 300 304 314 320 316 318 322 324 324 328 325 323 320
140 131 120 112 107 102 100 107 112 90 80 73 76 59 37 2 358 355 345 343 339 344 330 322 318 321 320 317 315 311 307 308 315 313 311 312 314 314 318 320 321 321 319
140 138 128 120 110 102 97 91 87 83 75 55 27 36 27 17 11 4 358 10 352 345 337 330 322 319 324 322 320 315 313 307 309 309 309 311 311 310 311 312 313 315 316
148 144 136 126 123 120 109 100 88 72 57 42 31 17 2 11 16 15 22 10 351 335 329 323 318 313 310 308 310 310 310 308 309 306 301 303 307 312 310 310 308 308 309
158 156 145 141 136 127 117 106 92 76 63 49 37 21 1 7 8 3 358 350 341 332 327 318 311 313 325 316 306 302 301 301 305 305 304 304 302 304 304 305 303 304 302
163 162 160 153 149 141 131 115 101 86 64 43 26 3 13 16 359 351 343 338 332 324 318 315 315 309 304 307 308 300 298 297 297 299 300 300 300 300 299 298 297 296 295
172 172 172 170 165 161 156 143 133 117 74 31 8 352 7 360 349 341 335 327 320 313 310 308 306 303 302 303 299 306 306 301 301 297 294 293 292 292 293 291 290 290 290
189 183 179 180 182 182 178 177 173 164 119 4 348 345 349 349 345 337 329 326 321 317 311 307 307 303 301 299 297 294 294 294 295 296 294 290 290 291 289 287 286 284 282
205 205 197 196 196 201 210 215 216 225 241 289 318 329 336 339 340 336 329 324 319 316 311 309 307 306 307 305 304 301 295 291 291 292 292 293 292 290 285 281 279 280 280
200 216 214 210 211 219 228 237 241 250 275 290 306 318 329 334 338 338 335 331 325 318 315 313 313 309 305 303 301 300 297 292 290 290 289 290 289 287 283 280 279 279 278
208 216 226 228 226 233 240 242 245 256 272 282 288 298 306 313 319 322 323 318 314 312 315 318 318 318 313 311 311 305 305 303 302 300 297 294 292 289 283 280 279 277 278